Other Surface Observations
Issued by NWS Charleston, SC

Home | Current Version | Previous Version | Text Only | Print | Product List | Glossary On
Versions: 1 2 3 4 5 6 7 8 9 10 11 12 13 14 15 16 17 18 19 20 21 22 23 24 25 26 27 28 29 30 31 32 33 34 35 36 37 38 39 40 41 42 43 44 45 46 47 48 49 50
000
SXUS52 KCHS 272226
OSOCHS

MARINE OBSERVATIONS
NATIONAL WEATHER SERVICE CHARLESTON SC
600 PM EDT FRI MAR 27 2015

...DOWNTOWN CHARLESTON AND HARBOR...

CITY           SKY/WX    TMP DP  RH WIND       PRES   REMARKS
WATERFRONT PRK   N/A     57 N/A N/A N18G26      N/A
FORT JOHNSON   NOT AVBL

...LAKE MOULTRIE...

CITY           SKY/WX    TMP DP  RH WIND       PRES   REMARKS
PINOPOLIS        N/A     55  52  88 VRB18     29.63R

...LAKE AND SUPPLEMENTAL COASTAL OBSERVATIONS...

STATION/POSITION TIME  TEMP    WIND        PRES    WAVE   SWELL
                       AIR SEA DIR/SP/G            HT/PER HT/PER/DIR
                 (UTC) (F)     (DEG/KT/KT) (MB)    (FT/S) (FT/S/D)
FORT PULASKI     2106   65 61  270/ 17/ 22 1005.5R
SAPELO ISLAND    2200   63     270/ 13     1006.0S
UPR LAKE MARION  NOT AVBL
WINYAH BAY       2100   56     340/  8     1003.0R
LAKE MURRAY      2200   51      30/  4/  6 1007.8R
ACE BASIN NERRS  NOT AVBL


...C-MAN AND BUOY OBSERVATIONS...

STATION/POSITION TIME  TEMP    WIND        PRES    WAVE   SWELL
                       AIR SEA DIR/SP/G            HT/PER HT/PER/DIR
                 (UTC) (F)     (DEG/KT/KT) (MB)    (FT/S) (FT/S/D)
BUOY 41004       2150   69 69  240/ 17/ 23 1002.8R   7/ 7   2/15
BUOY 41008       2150   63 61  290/ 17/ 21 1005.4R   3/ 8   2/110/ 8
FOLLY BEACH CMAN 2200   56     340/ 13/ 21 1005.1R
CAPERS NS BUOY   2100   61     230/ 14/ 16   N/A
FRIPP NS BUOY    2100   62     260/ 12/ 14 1004.1F
5E ST. MARYS GA  2121      63                N/A     3/ 8


STATION/POSITION TIME  TEMP    WIND        PRES    WAVE   SWELL
                       AIR SEA DIR/SP/G            HT/PER HT/PER/DIR
                 (UTC) (F)     (DEG/KT/KT) (MB)    (FT/S) (FT/S/D)
FRYING PAN BUOY  2150   63 66  320/ 21/ 29 1003.5R   8/ 8   2/230/13
BUOY 41025       NOT AVBL
CAPE LOOKOUT NC  2200   46      20/ 21/ 25 1005.1R
BUOY 41002       2150   71 69  230/ 14/ 19 1006.4S  10/ 8  10/190/ 8
BUOY 41010       2120   76 76  240/ 17/ 23 1008.2R
ST AUGUSTINE FL  2200   70 61  230/ 11/ 13 1007.4R

$$



USA.gov is the U.S. government's official web portal to all federal, state and local government web resources and services.